Flag for U.S.A. Weather past 2 weeks in Portland, Oregon, U.S.A.

Now
34 °F

Fog.


Feels Like: 30 °F
Forecast: 37 / 54 °F
Wind: 5 mph from West

Location: Portland International Airport

Current Time: Jan 30, 2015 at 6:21:36 AM

Latest Report: Jan 30, 2015 at 5:53 AM


Visibility: 0 mi

Pressure: 30.31 "Hg

Humidity: 100%

Dew point: 34 °F

Location of PortlandLocation

Historic Weather in Portland — Graph

°F

Portland temperature yesterday

Maximum temperature yesterday: 51 °F (at 1:53 PM)
Minimum temperature yesterday: 41 °F (at 10:53 PM)
Average temperature yesterday: 45 °F

Past Weeks' High & Low Weather Summary

 TemperatureHumidityPressure
High60 °F (Jan 24, 12:53 PM)100% (Jan 15, 10:53 PM)30.48 "Hg (Jan 15, 10:53 PM)
Low31 °F (Jan 21, 4:53 AM)61% (Jan 21, 1:53 PM)29.75 "Hg (Jan 17, 8:53 PM)
Average45 °F90%30.23 "Hg
* Reported Jan 15 4:53 AM — Jan 30 4:53 AM, Portland, Weather by CustomWeather, © 2014

Note: Actual official high and low records may vary slightly from our data, if they occured in-between our weather recording intervals... More about our weather records

Advertising

Portland weather history for previous 24 hours

 ConditionsComfort  
Time TempWeatherWind HumidityBarometerVisibility
4:53 AM
Jan 30
35 °FClear.No wind96%30.31 "Hg8 mi
3:53 AM34 °FClear.3 mph97%30.31 "Hg10 mi
2:53 AM37 °FClear.No wind100%30.30 "Hg10 mi
1:53 AM37 °FClear.No wind93%30.30 "Hg10 mi
12:53 AM41 °FClear.No wind86%30.29 "Hg10 mi
11:53 PM
Jan 29
41 °FClear.No wind82%30.29 "Hg10 mi
10:53 PM41 °FClear.No wind82%30.29 "Hg10 mi
9:53 PM42 °FClear.3 mph82%30.29 "Hg10 mi
8:53 PM42 °FClear.No wind79%30.30 "Hg10 mi
7:53 PM43 °FClear.7 mph76%30.29 "Hg10 mi
6:53 PM44 °FPassing clouds.12 mph73%30.27 "Hg10 mi
5:53 PM45 °FClear.14 mph71%30.27 "Hg10 mi
4:53 PM47 °FPassing clouds.12 mph69%30.27 "Hg10 mi
3:53 PM50 °FPassing clouds.7 mph66%30.27 "Hg10 mi
2:53 PM49 °FPassing clouds.3 mph80%30.27 "Hg10 mi
1:53 PM51 °FPassing clouds.No wind77%30.28 "Hg10 mi
12:53 PM49 °FPassing clouds.5 mph77%30.29 "Hg10 mi
11:53 AM47 °FScattered clouds.8 mph83%30.31 "Hg10 mi
10:53 AM47 °FPartly sunny.3 mph83%30.33 "Hg10 mi
9:53 AM43 °FPartly sunny.No wind100%30.33 "Hg7 mi
8:53 AM43 °FFog.3 mph100%30.33 "Hg0 mi
8:03 AM43 °FFog.No wind100%30.33 "Hg0 mi
7:53 AM43 °FFog.No wind100%30.33 "Hg0 mi
6:53 AM42 °FPassing clouds.5 mph92%30.33 "Hg10 mi
Weather by CustomWeather, © 2014

See weather overviewHow to use our weather pages